San Jose, Costa Rica

12:35 PM CST on December 17, 2017 (GMT -0600)
Juan Santamaria International

Weather History for MROC - January, 2004

Change the Weather History Date:

Saturday, January 31, 2004

  Actual Average Record
Temperature  
Mean Temperature 74 °F -  
Max Temperature 86 °F 81 °F 86 °F (1998)
Min Temperature 62 °F 64 °F 35 °F (2003)
Cooling Degree Days 9    
Growing Degree Days 24 (Base 50)    
Moisture  
Dew Point 61 °F    
Average Humidity 66    
Maximum Humidity 88    
Minimum Humidity 42    
Precipitation  
Precipitation 0.00 in 0.01 in - ()
Sea Level Pressure  
Sea Level Pressure 29.94 in    
Wind  
Wind Speed 6 mph ()    
Max Wind Speed 14 mph    
Max Gust Speed -    
Visibility 6.2 miles    
Events      
Averages and records for this station are not official NWS values.
T = Trace of Precipitation, MM = Missing Value Source: Averaged Metar Reports

Daily Weather History Graph

Daily Weather History Graph

Search for Another Location

Airport or City:

Trip Planner

Search our weather history database for the weather conditions in past years. The results will help you decide how hot, cold, wet, or windy it might be!

Date:

Astronomy

Jan. 31, 2004 Rise Set
Actual Time 5:59 AM CST 5:41 PM CST
Civil Twilight 5:37 AM CST 6:03 PM CST
Nautical Twilight 5:12 AM CST 6:28 PM CST
Astronomical Twilight 4:46 AM CST 6:53 PM CST
Moon 1:04 PM CST (1/31) 1:15 AM CST (1/31)
Length of Visible Light 12h 25m
Length of Day
11h 41m
Waxing Gibbous, 73% of the Moon is Illuminated
Jan 31
Waxing Gibbous
Feb 6
Full
Feb 13
Last Quarter
Feb 20
New
Feb 27
First Quarter

Hourly Weather History & Observations

Time (CST) Temp. Heat Index Dew Point Humidity Pressure Visibility Wind Dir Wind Speed Gust Speed Precip Events Conditions
12:00 AM 66.2 °F - 60.8 °F 83% 29.96 in - East 3.5 mph - N/A   Clear
1:00 AM 62.6 °F - 59.0 °F 88% 29.94 in - East 9.2 mph - N/A   Clear
3:00 AM 64.4 °F - 59.0 °F 83% 29.90 in - East 6.9 mph - N/A   Clear
4:00 AM 64.4 °F - 59.0 °F 83% 29.90 in - ENE 8.1 mph - N/A   Clear
6:00 AM 62.6 °F - 57.2 °F 82% 29.95 in - East 3.5 mph - N/A   Clear
7:00 AM 68.0 °F - 59.0 °F 73% 29.97 in - East 3.5 mph - N/A   Clear
8:00 AM 73.4 °F - 59.0 °F 61% 29.98 in - ESE 5.8 mph - N/A   Clear
9:00 AM 78.8 °F - 60.8 °F 54% 29.99 in - SE 3.5 mph - N/A   Clear
10:00 AM 82.4 °F 82.5 °F 59.0 °F 45% 29.98 in - Variable 2.3 mph - N/A   Clear
11:00 AM 84.2 °F 83.8 °F 59.0 °F 42% 29.96 in 6.2 mi NW 5.8 mph - N/A   Partly Cloudy
12:00 PM 84.2 °F 84.4 °F 60.8 °F 45% 29.94 in 6.2 mi WSW 10.4 mph - N/A   Partly Cloudy
1:00 PM 86.0 °F 86.1 °F 60.8 °F 43% 29.92 in 6.2 mi West 11.5 mph - N/A   Scattered Clouds
2:00 PM 84.2 °F 86.6 °F 66.2 °F 55% 29.90 in 6.2 mi WSW 13.8 mph - N/A   Scattered Clouds
3:00 PM 80.6 °F 82.7 °F 66.2 °F 61% 29.88 in 6.2 mi WSW 13.8 mph - N/A   Mostly Cloudy
4:00 PM 80.6 °F 82.7 °F 66.2 °F 61% 29.89 in 6.2 mi SW 6.9 mph - N/A   Mostly Cloudy
8:00 PM 71.6 °F - 62.6 °F 73% 29.95 in - East 8.1 mph - N/A   Clear
9:00 PM - - - N/A% 29.98 in - East 4.6 mph - N/A   Unknown
10:00 PM 69.8 °F - 60.8 °F 73% 29.98 in - ENE 8.1 mph - N/A   Clear
11:00 PM 66.2 °F - 60.8 °F 83% 29.98 in - North - - N/A   Clear